2022年5月17日

时间 代码 天气 温度 能见度 乌云 METAR/SPECI
15:25
V
22 °C 10 km+ - Var   Var 5 kt METAR EHLW 171325Z AUTO VRB05KT 9999 NCD 22/09 Q1019 BLU NOSIG RMK CB INFO NOT AVBL
14:55
V
22 °C 10 km+ - Var   Var 3 kt METAR EHLW 171255Z AUTO VRB03KT 9999 SCT055 22/08 Q1020 BLU NOSIG
14:25
V
22 °C 10 km+ - Var   Var 5 kt METAR EHLW 171225Z AUTO VRB05KT 9999 FEW053 22/09 Q1020 BLU NOSIG
13:55
V
22 °C 10 km+ - 250°   250° 5 kt METAR EHLW 171155Z AUTO 25005KT 170V330 9999 NCD 22/09 Q1020 BLU NOSIG
13:25
V
22 °C 10 km+ - 250°   250° 4 kt METAR EHLW 171125Z AUTO 25004KT 150V320 9999 SCT370 22/09 Q1020 BLU NOSIG
12:55
V
21 °C 10 km+ - 270°   270° 5 kt METAR EHLW 171055Z AUTO 27005KT 220V330 9999 FEW370 21/09 Q1020 BLU NOSIG
12:25
V
21 °C 10 km+ - 260°   260° 6 kt METAR EHLW 171025Z AUTO 26006KT 190V280 9999 NCD 21/10 Q1020 BLU NOSIG
11:55
V
20 °C 10 km+ - 260°   260° 6 kt METAR EHLW 170955Z AUTO 26006KT 190V270 9999 FEW370 20/11 Q1020 BLU NOSIG
11:25
V
20 °C 10 km+ 38.000 ft 230°   230° 7 kt METAR EHLW 170925Z AUTO 23007KT 170V310 9999 BKN380 20/11 Q1020 BLU NOSIG
10:55
V
19 °C 10 km+ 38.000 ft 250°   250° 4 kt METAR EHLW 170855Z AUTO 25004KT 230V320 9999 BKN380 19/12 Q1020 BLU NOSIG
10:25
V
18 °C 10 km+ - 280°   280° 6 kt METAR EHLW 170825Z AUTO 28006KT 220V300 9999 FEW390 18/13 Q1020 BLU NOSIG
09:55
V
18 °C 10 km+ - 250°   250° 7 kt METAR EHLW 170755Z AUTO 25007KT 230V320 9999 SCT380 18/13 Q1020 BLU NOSIG
09:25
V
17 °C 10 km+ 31.000 ft 260°   260° 9 kt METAR EHLW 170725Z AUTO 26009KT 210V270 9999 OVC310 17/13 Q1020 BLU NOSIG
08:55
V
16 °C 10 km+ 15.000 ft 260°   260° 10 kt METAR EHLW 170655Z AUTO 26010KT 9999 OVC150 16/13 Q1020 BLU NOSIG
08:25
V
16 °C 10 km+ 15.000 ft 250°   250° 9 kt METAR EHLW 170625Z AUTO 25009KT 220V290 9999 OVC150 16/13 Q1019 BLU NOSIG
07:55
V
15 °C 10 km+ 16.000 ft 240°   240° 7 kt METAR EHLW 170555Z AUTO 24007KT 9999 OVC160 15/13 Q1019 BLU NOSIG
07:25
V
15 °C 10 km+ 16.000 ft 240°   240° 6 kt METAR EHLW 170525Z AUTO 24006KT 9999 OVC160 15/13 Q1019 BLU
06:55
V
13 °C 10 km+ 16.000 ft 230°   230° 6 kt METAR EHLW 170455Z AUTO 23006KT 9999 OVC160 13/12 Q1019 BLU
06:25
V
12 °C 10 km+ 17.000 ft 220°   220° 6 kt METAR EHLW 170425Z AUTO 22006KT 9999 OVC170 12/11 Q1018 BLU
05:55
V
11 °C 10 km+ 16.000 ft 220°   220° 6 kt METAR EHLW 170355Z AUTO 22006KT 9999 OVC160 11/11 Q1018 BLU
05:25
V
11 °C 10 km+ 17.000 ft 220°   220° 7 kt METAR EHLW 170325Z AUTO 22007KT 9999 FEW036 BKN170 OVC320 11/10 Q1018 BLU
04:55
V
11 °C 10 km+ - 210°   210° 5 kt METAR EHLW 170255Z AUTO 21005KT 9999 FEW340 11/11 Q1018 BLU
04:25
V
12 °C 10 km+ 26.000 ft 210°   210° 6 kt METAR EHLW 170225Z AUTO 21006KT 9999 OVC260 12/11 Q1018 BLU
03:55
V
13 °C 9 km - 210°   210° 5 kt METAR EHLW 170155Z AUTO 21005KT 170V230 9000 BR FEW260 13/12 Q1018 BLU
03:25
V
13 °C 10 km+ - 210°   210° 7 kt METAR EHLW 170125Z AUTO 21007KT 9999 SCT260 13/12 Q1018 BLU
02:55
V
13 °C 10 km+ - 210°   210° 7 kt METAR EHLW 170055Z AUTO 21007KT 9999 SCT042 SCT260 13/11 Q1018 BLU
02:25
V
13 °C 10 km+ - 220°   220° 7 kt METAR EHLW 170025Z AUTO 22007KT 9999 NCD 13/12 Q1018 BLU RMK CB INFO NOT AVBL
01:55
V
13 °C 10 km+ 27.000 ft 210°   210° 6 kt METAR EHLW 162355Z AUTO 21006KT 9999 OVC270 13/11 Q1018 BLU
01:25
V
13 °C 10 km+ - 210°   210° 5 kt METAR EHLW 162325Z AUTO 21005KT 9999 NCD 13/12 Q1018 BLU
00:55
V
13 °C 10 km+ - 210°   210° 5 kt METAR EHLW 162255Z AUTO 21005KT 9999 SCT290 13/12 Q1018 BLU
00:25
V
13 °C 9 km - 220°   220° 5 kt METAR EHLW 162225Z AUTO 22005KT 9000 BR NCD 13/12 Q1018 BLU

2022年5月16日

时间 代码 天气 温度 能见度 乌云 METAR/SPECI
23:55
V
14 °C 10 km+ - 230°   230° 7 kt METAR EHLW 162155Z AUTO 23007KT 9999 NCD 14/12 Q1018 BLU
23:25
V
15 °C 10 km+ - 240°   240° 8 kt METAR EHLW 162125Z AUTO 24008KT 200V260 9999 NCD 15/13 Q1017 BLU
22:55
V
15 °C 10 km+ 3.900 ft 230°   230° 7 kt METAR EHLW 162055Z AUTO 23007KT 9999 OVC039 15/13 Q1017 BLU
22:25
V
16 °C 10 km+ 4.600 ft 230°   230° 9 kt METAR EHLW 162025Z AUTO 23009KT 200V260 9999 FEW037 OVC046 16/13 Q1017 BLU
22:02
V
16 °C 10 km+ 3.500 ft 230°   230° 9 kt METAR EHLW 162002Z AUTO 23009KT 200V260 9999 FEW019 BKN035 OVC046 16/13 Q1017 BLU
21:55
V
16 °C 10 km+ 3.500 ft 240°   240° 10 kt METAR EHLW 161955Z AUTO 24010KT 200V260 9999 SCT019 BKN035 OVC046 16/13 Q1017 WHT
21:27
V
16 °C 10 km+ 4.400 ft 230°   230° 9 kt METAR EHLW 161927Z AUTO 23009KT 9999 FEW023 SCT035 OVC044 16/13 Q1017 BLU
21:25
M
16 °C 10 km+ 2.300 ft 230°   230° 10 kt METAR EHLW 161925Z AUTO 23010KT 200V260 9999 BKN023 OVC044 16/13 Q1017 WHT
21:18
M
16 °C 10 km+ 2.400 ft 240°   240° 11 kt METAR EHLW 161918Z AUTO 24011KT 200V270 9999 OVC024 16/13 Q1017 WHT
21:11
M
16 °C 10 km+ 2.500 ft 230°   230° 10 kt METAR EHLW 161911Z AUTO 23010KT 200V270 9999 OVC025 16/13 Q1017 BLU
20:55
M
16 °C 10 km+ 2.400 ft 240°   240° 11 kt METAR EHLW 161855Z AUTO 24011KT 200V260 9999 FEW011 OVC024 16/13 Q1016 WHT
20:25
M
16 °C 10 km+ 1.300 ft 250°   250° 12 kt METAR EHLW 161825Z AUTO 25012KT 9999 BKN013 OVC015 16/13 Q1016 GRN
20:04
M
17 °C 10 km+ 1.400 ft 240°   240° 12 kt METAR EHLW 161804Z AUTO 24012KT 220V280 9999 OVC014 17/14 Q1016 GRN
20:00
M
17 °C 10 km+ 1.500 ft 240°   240° 12 kt METAR EHLW 161800Z AUTO 24012KT 220V280 9999 OVC015 17/14 Q1016 WHT
19:55
M
17 °C 10 km+ 1.500 ft 250°   250° 12 kt METAR EHLW 161755Z AUTO 25012KT 210V280 9999 OVC015 17/14 Q1016 WHT
19:25
M
17 °C 10 km+ 1.500 ft 230°   230° 12 kt METAR EHLW 161725Z AUTO 23012KT 200V260 9999 OVC015 17/14 Q1016 WHT
18:55
M
17 °C 10 km+ 1.700 ft 240°   240° 10 kt METAR EHLW 161655Z AUTO 24010KT 200V260 9999 OVC017 17/14 Q1015 WHT
18:39
M
17 °C 10 km+ 1.600 ft 230°   230° 12 kt METAR EHLW 161639Z AUTO 23012KT 9999 FEW014 OVC016 17/14 Q1016 WHT
18:25
M
17 °C 10 km+ 1.600 ft 230°   230° 13 kt METAR EHLW 161625Z AUTO 23013KT 200V260 9999 SCT013 OVC016 17/14 Q1016 GRN
17:55
M
18 °C 10 km+ 1.400 ft 240°   240° 16 kt METAR EHLW 161555Z AUTO 24016KT 200V260 9999 -RA BKN014 OVC017 18/14 Q1015 GRN
17:41
V
18 °C 10 km+ 9.300 ft 240°   240° 14 kt METAR EHLW 161541Z AUTO 24014KT 210V270 9999 SCT015 SCT087 BKN093 18/14 Q1015 WHT
17:25
M
19 °C 10 km+ 1.600 ft 240°   240° 12 kt METAR EHLW 161525Z AUTO 24012KT 200V260 9999 BKN016 BKN020 BKN034 19/15 Q1015 WHT
16:56
M
21 °C 10 km+ 1.900 ft 240°   240° 11 kt METAR EHLW 161456Z AUTO 24011KT 200V270 9999 BKN019 OVC100 21/16 Q1015 WHT
16:55
V
21 °C 10 km+ 10.000 ft 240°   240° 12 kt METAR EHLW 161455Z AUTO 24012KT 210V270 9999 FEW019 SCT040 BKN100 21/15 Q1015 BLU
16:25
V
20 °C 10 km+ 9.200 ft 250°   250° 13 kt METAR EHLW 161425Z AUTO 25013KT 210V280 9999 BKN092 BKN097 OVC100 20/15 Q1015 BLU
15:57
V
21 °C 10 km+ 17.000 ft 260°   260° 13 kt METAR EHLW 161357Z AUTO 26013KT 230V290 9999 OVC170 21/15 Q1015 BLU
15:55
V
20 °C 10 km+ 17.000 ft 260°   260° 14 kt METAR EHLW 161355Z AUTO 26014KT 230V290 9999 OVC170 20/14 Q1014 BLU NOSIG
15:25
V
22 °C 10 km+ 12.000 ft 250°   250° 13 kt METAR EHLW 161325Z AUTO 25013KT 220V290 9999 BKN120 OVC190 22/14 Q1014 BLU NOSIG
14:55
V
23 °C 10 km+ 10.000 ft 220°   220° 10 kt METAR EHLW 161255Z AUTO 22010KT 170V250 9999 OVC100 23/12 Q1014 BLU NOSIG
14:25
V
23 °C 10 km+ 11.000 ft 190°   190° 9 kt METAR EHLW 161225Z AUTO 19009KT 150V230 9999 OVC110 23/13 Q1014 BLU BECMG 24011KT
13:55
V
22 °C 10 km+ 10.000 ft 170°   170° 9 kt METAR EHLW 161155Z AUTO 17009KT 120V230 9999 OVC100 22/11 Q1014 BLU BECMG 24011KT
13:25
V
23 °C 10 km+ 11.000 ft 160°   160° 8 kt METAR EHLW 161125Z AUTO 16008KT 100V200 9999 OVC110 23/12 Q1014 BLU BECMG 24011KT
12:55
V
22 °C 10 km+ 11.000 ft 160°   160° 8 kt METAR EHLW 161055Z AUTO 16008KT 100V180 9999 OVC110 22/12 Q1014 BLU BECMG 24011KT
12:25
V
21 °C 10 km+ 9.800 ft 140°   140° 8 kt METAR EHLW 161025Z AUTO 14008KT 070V170 9999 SCT092 BKN098 OVC100 21/11 Q1013 BLU BECMG 24011KT
11:55
V
21 °C 10 km+ 11.000 ft 140°   140° 11 kt METAR EHLW 160955Z AUTO 14011KT 080V170 9999 OVC110 21/10 Q1013 BLU BECMG 24011KT
11:42
V
22 °C 10 km+ 11.000 ft 140°   140° 9 kt METAR EHLW 160942Z AUTO 14009KT 100V170 9999 OVC110 22/11 Q1013 BLU BECMG 24011KT
11:27
V
22 °C 10 km+ 16.000 ft 130°   130° 9 kt METAR EHLW 160927Z AUTO 13009KT 060V170 9999 OVC160 22/11 Q1013 BLU BECMG 24011KT
11:25
V
22 °C 10 km+ 16.000 ft 120°   120° 8 kt METAR EHLW 160925Z AUTO 12008KT 060V170 9999 OVC160 22/12 Q1013 BLU NOSIG
11:10
V
21 °C 10 km+ 16.000 ft 120°   120° 10 kt METAR EHLW 160910Z AUTO 12010KT 070V160 9999 OVC160 21/10 Q1013 BLU NOSIG
10:55
V
20 °C 10 km+ 16.000 ft 120°   120° 9 kt METAR EHLW 160855Z AUTO 12009KT 070V160 9999 OVC160 20/10 Q1013 BLU BECMG 15008KT
10:25
V
19 °C 10 km+ 22.000 ft 110°   110° 10 kt METAR EHLW 160825Z AUTO 11010KT 050V200 9999 SCT170 OVC220 19/10 Q1013 BLU BECMG 15008KT
09:55
V
19 °C 10 km+ 27.000 ft 110°   110° 8 kt METAR EHLW 160755Z AUTO 11008KT 020V170 9999 OVC270 19/10 Q1013 BLU NOSIG
09:25
V
18 °C 10 km+ 33.000 ft Var   Var 10 kt METAR EHLW 160725Z AUTO VRB10KT 9999 SCT190 OVC330 18/09 Q1013 BLU NOSIG
08:55
V
16 °C 10 km+ 17.000 ft 100°   100° 11 kt METAR EHLW 160655Z AUTO 10011KT 030V200 9999 OVC170 16/09 Q1013 BLU NOSIG
08:25
V
15 °C 10 km+ 18.000 ft Var   Var 13 kt METAR EHLW 160625Z AUTO VRB13KT 9999 OVC180 15/08 Q1013 BLU NOSIG
07:58
V
14 °C 10 km+ 17.000 ft Var   Var 11 kt METAR EHLW 160558Z AUTO VRB11KT 9999 OVC170 14/08 Q1013 BLU NOSIG
07:55
V
14 °C 10 km+ 17.000 ft 100°   100° 12 kt METAR EHLW 160555Z AUTO 10012KT 020V190 9999 OVC170 14/08 Q1013 BLU
07:25
V
14 °C 10 km+ 16.000 ft 110°   110° 11 kt METAR EHLW 160525Z AUTO 11011KT 050V170 9999 OVC160 14/08 Q1014 BLU
06:55
V
13 °C 10 km+ 17.000 ft 100°   100° 11 kt METAR EHLW 160455Z AUTO 10011KT 010V180 9999 OVC170 13/08 Q1014 BLU
06:25
V
13 °C 10 km+ 27.000 ft Var   Var 10 kt METAR EHLW 160425Z AUTO VRB10KT 9999 SCT180 OVC270 13/08 Q1014 BLU
05:55
V
13 °C 10 km+ 33.000 ft Var   Var 9 kt METAR EHLW 160355Z AUTO VRB09KT 9999 OVC330 13/08 Q1014 BLU
05:25
V
13 °C 10 km+ 19.000 ft Var   Var 11 kt METAR EHLW 160325Z AUTO VRB11KT 9999 OVC190 13/08 Q1014 BLU
04:55
V
13 °C 10 km+ - Var   Var 9 kt METAR EHLW 160255Z AUTO VRB09KT 9999 SCT310 13/08 Q1014 BLU
04:25
V
12 °C 10 km+ 19.000 ft Var   Var 10 kt METAR EHLW 160225Z AUTO VRB10KT 9999 BKN190 OVC310 12/09 Q1015 BLU
03:55
V
12 °C 10 km+ 19.000 ft Var   Var 9 kt METAR EHLW 160155Z AUTO VRB09KT 9999 OVC190 12/09 Q1015 BLU
03:25
V
12 °C 10 km+ 32.000 ft 070°   070° 9 kt METAR EHLW 160125Z AUTO 07009KT 360V120 9999 FEW190 OVC320 12/09 Q1015 BLU
02:55
V
12 °C 10 km+ 18.000 ft 070°   070° 10 kt METAR EHLW 160055Z AUTO 07010KT 340V150 9999 OVC180 12/09 Q1016 BLU
02:25
V
11 °C 10 km+ 34.000 ft Var   Var 9 kt METAR EHLW 160025Z AUTO VRB09KT 9999 OVC340 11/09 Q1016 BLU
01:55
V
11 °C 10 km+ - 070°   070° 9 kt METAR EHLW 152355Z AUTO 07009KT 340V150 9999 FEW360 11/09 Q1016 BLU
01:25
V
12 °C 10 km+ 35.000 ft 070°   070° 9 kt METAR EHLW 152325Z AUTO 07009KT 350V140 9999 BKN350 12/09 Q1017 BLU
00:55
V
12 °C 10 km+ 18.000 ft 070°   070° 9 kt METAR EHLW 152255Z AUTO 07009KT 360V160 9999 OVC180 12/09 Q1017 BLU
00:25
V
12 °C 10 km+ - 080°   080° 10 kt METAR EHLW 152225Z AUTO 08010KT 360V140 9999 SCT180 12/09 Q1017 BLU

2022年5月15日

时间 代码 天气 温度 能见度 乌云 METAR/SPECI
23:55
V
12 °C 10 km+ 36.000 ft Var   Var 10 kt METAR EHLW 152155Z AUTO VRB10KT 9999 FEW180 SCT250 BKN360 12/09 Q1017 BLU
23:25
V
13 °C 10 km+ 17.000 ft 070°   070° 11 kt METAR EHLW 152125Z AUTO 07011KT 330V140 9999 OVC170 13/10 Q1017 BLU
22:55
V
13 °C 10 km+ 17.000 ft 070°   070° 11 kt METAR EHLW 152055Z AUTO 07011KT 340V130 9999 OVC170 13/10 Q1017 BLU
22:25
V
13 °C 10 km+ 22.000 ft Var   Var 10 kt METAR EHLW 152025Z AUTO VRB10KT 9999 BKN220 13/10 Q1017 BLU
21:55
V
13 °C 10 km+ - 060°   060° 12 kt METAR EHLW 151955Z AUTO 06012KT 340V120 9999 NCD 13/11 Q1017 BLU
21:25
V
14 °C 10 km+ - 060°   060° 11 kt METAR EHLW 151925Z AUTO 06011KT 340V110 9999 NCD 14/11 Q1017 BLU
20:55
V
14 °C 10 km+ - 060°   060° 12 kt METAR EHLW 151855Z AUTO 06012KT 340V130 9999 NCD 14/11 Q1017 BLU
20:25
V
15 °C 10 km+ 20.000 ft 060°   060° 12 kt METAR EHLW 151825Z AUTO 06012KT 360V120 9999 OVC200 15/11 Q1017 BLU
19:55
V
15 °C 10 km+ - 060°   060° 14 kt METAR EHLW 151755Z AUTO 06014KT 360V130 9999 SCT210 15/11 Q1017 BLU
19:25
V
16 °C 10 km+ 21.000 ft 060°   060° 14 kt METAR EHLW 151725Z AUTO 06014KT 350V130 9999 OVC210 16/11 Q1018 BLU
18:55
V
16 °C 10 km+ 14.000 ft 060°   060° 13 kt METAR EHLW 151655Z AUTO 06013KT 340V130 9999 OVC140 16/10 Q1018 BLU
18:25
V
17 °C 10 km+ 16.000 ft 050°   050° 15 kt METAR EHLW 151625Z AUTO 05015KT 010V090 9999 OVC160 17/11 Q1018 BLU
17:55
V
18 °C 10 km+ - 050°   050° 16 kt METAR EHLW 151555Z AUTO 05016KT 330V090 9999 NCD 18/11 Q1018 BLU
17:25
V
18 °C 10 km+ 35.000 ft 050°   050° 15 kt METAR EHLW 151525Z AUTO 05015KT 350V120 9999 OVC350 18/11 Q1019 BLU
16:55
V
19 °C 10 km+ 35.000 ft 060°   060° 15 kt METAR EHLW 151455Z AUTO 06015KT 350V120 9999 BKN350 19/11 Q1019 BLU
16:25
V
19 °C 10 km+ 29.000 ft 060°   060° 15 kt METAR EHLW 151425Z AUTO 06015KT 360V110 9999 OVC290 19/11 Q1019 BLU
15:55
V
19 °C 10 km+ 28.000 ft Var   Var 15 kt METAR EHLW 151355Z AUTO VRB15KT 9999 OVC280 19/11 Q1019 BLU
较旧的数据

下载我们的应用程序

在您的手机和平板电脑上轻松访问所有航空天气。
有许多网站上没有的功能,如离线支持和个人机场列表。

Studio Eveline

Benalmádena
España